Weather History for Illesheim, Germany

Change the Weather History Date:

Saturday, February 2, 2013

  Actual Average Record
Temperature  
Mean Temperature 36 °F -  
Max Temperature 44 °F - - ()
Min Temperature 26 °F - - ()
Degree Days  
Heating Degree Days 30    
Moisture  
Dew Point 39 °F    
Average Humidity 98    
Maximum Humidity 100    
Minimum Humidity 80    
Precipitation  
Precipitation 0.05 in - - ()
Sea Level Pressure  
Sea Level Pressure 29.40 in    
Wind  
Wind Speed 9 mph ()    
Max Wind Speed 16 mph    
Max Gust Speed 28 mph    
Visibility 6.2 miles    
Events Rain    
T = Trace of Precipitation, MM = Missing Value Source: Averaged Metar Reports

Daily Weather History Graph

Daily Weather History Graph

Search for Another Location

Airport:

Trip Planner

Search our weather history database for the weather conditions in past years. The results will help you decide how hot, cold, wet, or windy it might be!

Date:

Astronomy

Feb. 02, 2013 Rise Set
Actual Time 7:48 AM CET 5:16 PM CET
Civil Twilight 7:14 AM CET 5:50 PM CET
Nautical Twilight 6:36 AM CET 6:28 PM CET
Astronomical Twilight 5:58 AM CET 7:06 PM CET
Moon No Moon Rise 10:07 AM CET (2/2)
Length of Visible Light 10h 35m
Length of Day
9h 27m
Waning Gibbous, 62% of the Moon is Illuminated
Feb 2
Waning Gibbous
Feb 3
Last Quarter
Feb 10
New
Feb 17
First Quarter
Feb 25
Full

Hourly Weather History & Observations

Time (CET) Temp. Windchill Dew Point Humidity Pressure Visibility Wind Dir Wind Speed Gust Speed Precip Events Conditions
12:08 AM 44.6 °F 39.7 °F 44.6 °F 100% 29.24 in 6.2 mi WSW 9.2 mph - N/A   Overcast
12:58 AM 43.7 °F 38.1 °F 43.7 °F 100% 29.26 in 6.2 mi West 10.4 mph - 0.00 in   Light Drizzle
1:22 AM 42.8 °F 38.0 °F 42.8 °F 100% 29.23 in 6.2 mi West 8.1 mph - N/A   Overcast
1:35 AM 42.8 °F 38.0 °F 42.8 °F 100% 29.23 in 6.2 mi West 8.1 mph - N/A   Light Drizzle
1:38 AM 42.8 °F 37.5 °F 42.8 °F 100% 29.23 in 6.2 mi West 9.2 mph - N/A   Overcast
1:58 AM 42.8 °F 37.0 °F 42.8 °F 100% 29.26 in 6.2 mi West 10.4 mph - 0.00 in   Overcast
2:36 AM 42.8 °F 39.3 °F 42.8 °F 100% 29.23 in 6.2 mi West 5.8 mph - N/A   Light Drizzle
2:47 AM 42.8 °F 38.0 °F 42.8 °F 100% 29.23 in 6.2 mi West 8.1 mph - N/A Rain Light Rain
2:50 AM 42.8 °F 37.0 °F 42.8 °F 100% 29.23 in 6.2 mi West 10.4 mph - N/A Rain Light Rain
2:58 AM 42.6 °F 37.2 °F 42.6 °F 100% 29.27 in 6.2 mi West 9.2 mph - 0.00 in Rain Light Rain
3:58 AM 41.2 °F 33.4 °F 41.2 °F 100% 29.28 in 6.2 mi WNW 15.0 mph - 0.03 in Rain Light Rain
4:38 AM 39.2 °F 30.8 °F 39.2 °F 100% 29.27 in 6.2 mi NW 15.0 mph 24.2 mph N/A Rain Light Rain
4:39 AM 39.2 °F 30.5 °F 39.2 °F 100% 29.27 in 6.2 mi NW 16.1 mph 24.2 mph N/A Rain Light Rain
4:41 AM 39.2 °F 30.5 °F 39.2 °F 100% 29.27 in 6.2 mi NW 16.1 mph 24.2 mph N/A Rain Light Rain
4:58 AM 38.3 °F 29.3 °F 38.3 °F 100% 29.32 in 6.2 mi NW 16.1 mph 27.6 mph 0.02 in   Light Drizzle
3:56 PM 39.2 °F 33.0 °F 35.6 °F 87% 29.63 in 6.2 mi WNW 9.2 mph - N/A   Mostly Cloudy
8:56 PM 32.0 °F 28.7 °F 26.6 °F 80% 29.81 in 6.2 mi West 3.5 mph - N/A   Clear
9:58 PM 27.0 °F 20.5 °F 26.8 °F 99% 29.89 in 6.2 mi WSW 5.8 mph - N/A   Clear
10:58 PM 27.9 °F 19.1 °F 27.5 °F 99% 29.91 in 6.2 mi SW 9.2 mph - N/A   Scattered Clouds
11:58 PM 26.6 °F 18.2 °F 26.2 °F 99% 29.93 in 6.2 mi WSW 8.1 mph - N/A   Mostly Cloudy